Location: Cold Norton
(51.6667°N, 0.6667°E)
Time: 07:26:46
(UTC+00:00)

ARIANE 5 R/B - Pass Details

Date: 18 November 2025
Orbit: 747 x 792 km, 98.8° (Epoch: 12 December)

Event Time Altitude Azimuth Distance (km) Brightness Sun altitude
Rises 17:44:06 0° 176° (S) 3,180 5.8 -15.3°
Reaches altitude 10° 17:46:26 10° 181° (S) 2,260 5.1 -15.7°
Maximum altitude 17:51:18 55° 259° (WSW) 902 3.2 -16.4°
Drops below altitude 10° 17:56:14 10° 337° (NNW) 2,288 5.1 -17.2°
Sets 17:58:36 0° 342° (NNW) 3,223 5.8 -17.5°
